Pagina principale
METAR-TAF:

METAR-TAF

Aeroporti :

Monte Cimone, Italia

latitudine: 44-12N, longitudine: 010-42E, altezza: 2165 m

Osservazione

Il bollettino è stato emesso 1 ora e 6 minuti fa, alle 22:55 UTC
Vento 4 kt da sud
Temperature 15°C
Umidità 55%
Pressione 1033 hPa

METAR: LIVC 192255Z AUTO 19004KT //// 15/06 Q1033

Ora: 02:01 (00:01 UTC)


TAF: mancante

Osservazioni e previsioni meteorologiche di più di 4000 aeroporti (messaggi METAR e TAF).

Le stazioni disponibili sono rappresentate dai dischi gialli e rossi sulla carta.

Puntare il mouse per vedere il nome della stazione.

Clicca sopra per visualizzare le osservazioni e previsioni meteorologiche.

Per cambiare la mappa : fare clic sui pulsanti verdi con una croce nera per ingrandire, il pulsante verde con un trattino per diminuire, o sulla freccia verde per le mappe adiacenti.


METAR-TAF: